Forside
METAR-TAF:

METAR-TAF

Lufthavne :

West Bend Municipal Airport

West Bend, Wisconsin, USA

Breddekreds: 43-25-20N, længdekreds: 088-07-41W, højde: 270 m

Aktuelle vejr

Denne rapport blev lavet for 33 minutter siden, kl. 16:35 UTC
Vind 3 kt fra vestnordvest
Temperatur 25°C
Fugtighed 41%
Tryk 1019 hPa
Sigt: 16.1 km
Spredte skyer i en højde af 5000 ft

METAR: KETB 031635Z AUTO 30003KT 10SM SCT050 25/11 A3010 RMK AO2

Tid: 12:08 (17:08 UTC)


TAF: fraværende

Vejrobservationer og prognoser fra mere end 4000 lufthavne (METAR og TAF).

De gule og røde prikker repræsenterer de meteorologiske stationer.

Flyt musen over at se navnet på stationen.

Så klik over at se vejr observationer og prognoser.

At skifte det kort: Klik på de grønne knapper med et sort kors for at zoome ind; på den grønne knap med en bindestreg for at zoome ud; eller på de grønne pile for tilstødende kort.


METAR-TAF: